Time,TemperatureF,DewpointF,PressureIn,WindDirection,WindDirectionDegrees,WindSpeedMPH,WindSpeedGustMPH,Humidity,HourlyPrecipIn,Conditions,Clouds,dailyrainin,SolarRadiationWatts/m^2,SoftwareType,DateUTC
2013-07-25 00:00:00,71.2,62.1,28.71,ENE,63,0.0,2.0,73,0.00,FEW,,0.00,0.0,WeatherDisplay:10.37,2013-07-25 05:00:00,
2013-07-25 00:10:00,71.0,62.3,28.71,ENE,63,0.0,2.0,74,0.00,FEW,,0.00,0.0,WeatherDisplay:10.37,2013-07-25 05:10:00,
2013-07-25 00:20:00,70.7,62.0,28.71,ENE,63,0.0,2.0,74,0.00,FEW,,0.00,0.0,WeatherDisplay:10.37,2013-07-25 05:20:00,
2013-07-25 00:30:00,70.6,61.9,28.71,ENE,71,1.0,4.0,74,0.00,FEW,,0.00,0.0,WeatherDisplay:10.37,2013-07-25 05:30:00,
2013-07-25 00:40:00,70.5,61.8,28.71,ENE,72,0.0,3.0,74,0.00,FEW,,0.00,0.0,WeatherDisplay:10.37,2013-07-25 05:40:00,
2013-07-25 00:50:00,70.2,62.3,28.71,ENE,72,0.0,1.0,76,0.00,FEW,,0.00,0.0,WeatherDisplay:10.37,2013-07-25 05:50:00,
2013-07-25 01:00:00,69.5,62.0,28.72,ENE,72,0.0,0.0,77,0.00,FEW,,0.00,0.0,WeatherDisplay:10.37,2013-07-25 06:00:00,
2013-07-25 01:10:00,68.9,62.1,28.72,ENE,72,0.0,0.0,79,0.00,FEW,,0.00,0.0,WeatherDisplay:10.37,2013-07-25 06:10:00,
2013-07-25 01:20:00,68.2,61.7,28.72,ENE,72,0.0,0.0,80,0.00,FEW,,0.00,0.0,WeatherDisplay:10.37,2013-07-25 06:20:00,
2013-07-25 01:30:00,67.4,61.7,28.72,ENE,72,0.0,0.0,82,0.00,FEW,,0.00,0.0,WeatherDisplay:10.37,2013-07-25 06:30:00,
2013-07-25 01:40:00,66.8,61.5,28.72,ENE,72,0.0,1.0,83,0.00,FEW,,0.00,0.0,WeatherDisplay:10.37,2013-07-25 06:40:00,
2013-07-25 01:50:00,66.7,62.1,28.72,ENE,72,0.0,0.0,85,0.00,FEW,,0.00,0.0,WeatherDisplay:10.37,2013-07-25 06:50:00,
2013-07-25 02:00:00,66.5,61.5,28.72,ENE,72,0.0,0.0,84,0.00,FEW,,0.00,0.0,WeatherDisplay:10.37,2013-07-25 07:00:00,
2013-07-25 02:10:00,66.3,61.6,28.72,ENE,72,0.0,0.0,85,0.00,FEW,,0.00,0.0,WeatherDisplay:10.37,2013-07-25 07:10:00,
2013-07-25 02:20:00,65.9,61.2,28.72,ENE,72,0.0,0.0,85,0.00,FEW,,0.00,0.0,WeatherDisplay:10.37,2013-07-25 07:20:00,
2013-07-25 02:30:00,65.8,61.2,28.72,ENE,72,0.0,1.0,85,0.00,FEW,,0.00,0.0,WeatherDisplay:10.37,2013-07-25 07:30:00,
2013-07-25 02:40:00,65.7,61.4,28.72,ENE,72,0.0,0.0,86,0.00,FEW,,0.00,0.0,WeatherDisplay:10.37,2013-07-25 07:40:00,
2013-07-25 02:50:00,65.6,61.3,28.72,ENE,72,0.0,0.0,86,0.00,FEW,,0.00,0.0,WeatherDisplay:10.37,2013-07-25 07:50:00,
2013-07-25 03:00:00,65.3,61.3,28.72,ENE,72,0.0,1.0,87,0.00,FEW,,0.00,0.0,WeatherDisplay:10.37,2013-07-25 08:00:00,
2013-07-25 03:10:00,64.8,60.9,28.72,ENE,72,0.0,0.0,87,0.00,FEW,,0.00,0.0,WeatherDisplay:10.37,2013-07-25 08:10:00,
2013-07-25 03:20:00,64.4,60.8,28.72,ENE,72,0.0,0.0,88,0.00,FEW,,0.00,0.0,WeatherDisplay:10.37,2013-07-25 08:20:00,
2013-07-25 03:30:00,64.3,60.3,28.73,ENE,72,0.0,1.0,87,0.00,FEW,,0.00,0.0,WeatherDisplay:10.37,2013-07-25 08:30:00,
2013-07-25 03:40:00,64.6,60.3,28.73,ENE,72,0.0,2.0,86,0.00,FEW,,0.00,0.0,WeatherDisplay:10.37,2013-07-25 08:40:00,
2013-07-25 03:50:00,65.0,60.4,28.73,ENE,72,0.0,2.0,85,0.00,FEW,,0.00,0.0,WeatherDisplay:10.37,2013-07-25 08:50:00,
2013-07-25 04:00:00,64.8,60.2,28.73,ENE,72,0.0,0.0,85,0.00,FEW,,0.00,0.0,WeatherDisplay:10.37,2013-07-25 09:00:00,
2013-07-25 04:10:00,64.3,60.3,28.73,ENE,72,0.0,0.0,87,0.00,FEW,,0.00,0.0,WeatherDisplay:10.37,2013-07-25 09:10:00,
2013-07-25 04:20:00,63.7,59.7,28.73,ENE,72,0.0,0.0,87,0.00,FEW,,0.00,0.0,WeatherDisplay:10.37,2013-07-25 09:20:00,
2013-07-25 04:30:00,63.2,59.9,28.73,ENE,72,0.0,0.0,89,0.00,FEW,,0.00,0.0,WeatherDisplay:10.37,2013-07-25 09:30:00,
2013-07-25 04:40:00,62.8,59.8,28.73,ENE,72,0.0,0.0,90,0.00,FEW,,0.00,0.0,WeatherDisplay:10.37,2013-07-25 09:40:00,
2013-07-25 04:50:00,62.3,59.3,28.73,ENE,72,0.0,0.0,90,0.00,FEW,,0.00,0.0,WeatherDisplay:10.37,2013-07-25 09:50:00,
2013-07-25 05:00:00,61.8,59.1,28.73,ENE,72,0.0,0.0,91,0.00,FEW,,0.00,0.0,WeatherDisplay:10.37,2013-07-25 10:00:00,
2013-07-25 05:10:00,61.5,59.2,28.73,ENE,72,0.0,0.0,92,0.00,FEW,,0.00,0.0,WeatherDisplay:10.37,2013-07-25 10:10:00,
2013-07-25 05:20:00,61.3,59.3,28.73,ENE,72,0.0,0.0,93,0.00,FEW,,0.00,0.0,WeatherDisplay:10.37,2013-07-25 10:20:00,
2013-07-25 05:30:00,61.3,59.3,28.73,ENE,72,0.0,0.0,93,0.00,FEW,,0.00,0.0,WeatherDisplay:10.37,2013-07-25 10:30:00,
2013-07-25 05:40:00,61.4,59.4,28.73,ENE,72,0.0,0.0,93,0.00,FEW,,0.00,0.0,WeatherDisplay:10.37,2013-07-25 10:40:00,
2013-07-25 05:50:00,61.4,59.1,28.73,ENE,72,0.0,0.0,92,0.00,FEW,,0.00,0.0,WeatherDisplay:10.37,2013-07-25 10:50:00,
2013-07-25 06:00:00,61.3,59.0,28.73,ENE,72,0.0,0.0,92,0.00,FEW,,0.00,0.0,WeatherDisplay:10.37,2013-07-25 11:00:00,
2013-07-25 06:10:00,61.4,59.1,28.73,ENE,72,0.0,0.0,92,0.00,FEW,,0.00,0.0,WeatherDisplay:10.37,2013-07-25 11:10:00,
2013-07-25 06:20:00,61.3,58.7,28.74,ENE,72,0.0,0.0,91,0.00,FEW,,0.00,0.0,WeatherDisplay:10.37,2013-07-25 11:20:00,
2013-07-25 06:30:00,61.3,59.0,28.75,ENE,72,0.0,0.0,92,0.00,FEW,,0.00,0.0,WeatherDisplay:10.37,2013-07-25 11:30:00,
2013-07-25 06:40:00,61.4,59.0,28.74,ENE,72,0.0,0.0,92,0.00,FEW,,0.00,0.0,WeatherDisplay:10.37,2013-07-25 11:40:00,
2013-07-25 06:50:00,61.4,59.0,28.75,ENE,72,0.0,0.0,92,0.00,FEW,,0.00,0.0,WeatherDisplay:10.37,2013-07-25 11:50:00,
2013-07-25 07:00:00,61.5,59.2,28.75,ENE,72,0.0,0.0,92,0.00,FEW,,0.00,0.0,WeatherDisplay:10.37,2013-07-25 12:00:00,
2013-07-25 07:10:00,62.0,59.7,28.75,ENE,71,0.0,0.0,92,0.00,FEW,,0.00,0.0,WeatherDisplay:10.37,2013-07-25 12:10:00,
2013-07-25 07:20:00,63.0,60.0,28.76,ENE,71,0.0,2.0,90,0.00,FEW,,0.00,0.0,WeatherDisplay:10.37,2013-07-25 12:20:00,
2013-07-25 07:30:00,64.1,60.8,28.76,ENE,72,0.0,0.0,89,0.00,FEW,,0.00,0.0,WeatherDisplay:10.37,2013-07-25 12:30:00,
2013-07-25 07:40:00,65.4,61.1,28.76,ENE,72,0.0,1.0,86,0.00,FEW,,0.00,0.0,WeatherDisplay:10.37,2013-07-25 12:40:00,
2013-07-25 07:50:00,65.9,60.9,28.76,ENE,72,0.0,3.0,84,0.00,FEW,,0.00,0.0,WeatherDisplay:10.37,2013-07-25 12:50:00,
2013-07-25 08:00:00,66.7,61.0,28.75,ENE,72,0.0,2.0,82,0.00,FEW,,0.00,0.0,WeatherDisplay:10.37,2013-07-25 13:00:00,
2013-07-25 08:10:00,67.7,61.3,28.75,SE,146,1.0,6.0,80,0.00,FEW,,0.00,0.0,WeatherDisplay:10.37,2013-07-25 13:10:00,
2013-07-25 08:20:00,68.3,61.2,28.76,SSE,151,3.0,7.0,78,0.00,FEW,,0.00,0.0,WeatherDisplay:10.37,2013-07-25 13:20:00,
2013-07-25 08:30:00,68.9,62.1,28.76,SSE,149,1.0,7.0,79,0.00,FEW,,0.00,0.0,WeatherDisplay:10.37,2013-07-25 13:30:00,
2013-07-25 08:40:00,69.5,62.0,28.77,SE,141,5.0,10.0,77,0.00,FEW,,0.00,0.0,WeatherDisplay:10.37,2013-07-25 13:40:00,
2013-07-25 08:50:00,70.0,62.1,28.77,SSE,162,2.0,6.0,76,0.00,FEW,,0.00,0.0,WeatherDisplay:10.37,2013-07-25 13:50:00,
2013-07-25 09:00:00,70.9,62.2,28.77,SE,142,2.0,7.0,74,0.00,FEW,,0.00,0.0,WeatherDisplay:10.37,2013-07-25 14:00:00,
2013-07-25 09:10:00,71.6,62.5,28.77,SE,143,2.0,7.0,73,0.00,FEW,,0.00,0.0,WeatherDisplay:10.37,2013-07-25 14:10:00,
2013-07-25 09:20:00,72.1,61.7,28.77,South,173,2.0,10.0,70,0.00,FEW,,0.00,0.0,WeatherDisplay:10.37,2013-07-25 14:20:00,
2013-07-25 09:30:00,72.4,61.7,28.78,SSE,163,1.0,6.0,69,0.00,FEW,,0.00,0.0,WeatherDisplay:10.37,2013-07-25 14:30:00,
2013-07-25 09:40:00,72.6,61.8,28.78,SSE,151,2.0,7.0,69,0.00,FEW,,0.00,0.0,WeatherDisplay:10.37,2013-07-25 14:40:00,
2013-07-25 09:50:00,73.2,62.0,28.78,South,175,2.0,7.0,68,0.00,FEW,,0.00,0.0,WeatherDisplay:10.37,2013-07-25 14:50:00,
2013-07-25 10:00:00,73.3,62.1,28.78,SE,136,1.0,7.0,68,0.00,FEW,,0.00,0.0,WeatherDisplay:10.37,2013-07-25 15:00:00,
2013-07-25 10:10:00,74.2,62.5,28.78,SE,135,2.0,6.0,67,0.00,FEW,,0.00,0.0,WeatherDisplay:10.37,2013-07-25 15:10:00,
2013-07-25 10:20:00,74.3,62.2,28.78,South,179,0.0,6.0,66,0.00,FEW,,0.00,0.0,WeatherDisplay:10.37,2013-07-25 15:20:00,
2013-07-25 10:30:00,74.8,62.7,28.79,South,185,0.0,5.0,66,0.00,FEW,,0.00,0.0,WeatherDisplay:10.37,2013-07-25 15:30:00,
2013-07-25 10:40:00,75.3,63.2,28.79,South,173,1.0,6.0,66,0.00,FEW,,0.00,0.0,WeatherDisplay:10.37,2013-07-25 15:40:00,
2013-07-25 10:50:00,76.3,64.1,28.79,SSE,150,0.0,4.0,66,0.00,FEW,,0.00,0.0,WeatherDisplay:10.37,2013-07-25 15:50:00,
2013-07-25 11:00:00,77.4,65.2,28.79,SSE,150,1.0,5.0,66,0.00,FEW,,0.00,0.0,WeatherDisplay:10.37,2013-07-25 16:00:00,
2013-07-25 11:10:00,77.7,64.5,28.78,SSE,150,0.0,5.0,64,0.00,FEW,,0.00,0.0,WeatherDisplay:10.37,2013-07-25 16:10:00,
2013-07-25 11:20:00,78.3,63.7,28.78,ESE,105,0.0,5.0,61,0.00,FEW,,0.00,0.0,WeatherDisplay:10.37,2013-07-25 16:20:00,
2013-07-25 11:30:00,78.2,63.6,28.78,SE,133,0.0,10.0,61,0.00,FEW,,0.00,0.0,WeatherDisplay:10.37,2013-07-25 16:30:00,
2013-07-25 11:40:00,78.4,63.9,28.78,ESE,121,5.0,9.0,61,0.00,FEW,,0.00,0.0,WeatherDisplay:10.37,2013-07-25 16:40:00,
2013-07-25 11:50:00,78.8,63.8,28.77,ENE,63,2.0,7.0,60,0.00,FEW,,0.00,0.0,WeatherDisplay:10.37,2013-07-25 16:50:00,
2013-07-25 12:00:00,79.6,65.9,28.78,NNE,24,0.0,6.0,63,0.00,FEW,,0.00,0.0,WeatherDisplay:10.37,2013-07-25 17:00:00,
2013-07-25 12:10:00,80.1,64.0,28.78,ENE,78,0.0,5.0,58,0.00,FEW,,0.00,0.0,WeatherDisplay:10.37,2013-07-25 17:10:00,
2013-07-25 12:20:00,80.6,64.4,28.77,East,90,0.0,2.0,58,0.00,FEW,,0.00,0.0,WeatherDisplay:10.37,2013-07-25 17:20:00,
2013-07-25 12:30:00,81.4,64.7,28.77,East,93,0.0,6.0,57,0.00,FEW,,0.00,0.0,WeatherDisplay:10.37,2013-07-25 17:30:00,
2013-07-25 12:40:00,81.6,64.4,28.77,ESE,105,2.0,7.0,56,0.00,FEW,,0.00,0.0,WeatherDisplay:10.37,2013-07-25 17:40:00,
2013-07-25 12:50:00,81.2,64.1,28.77,ESE,112,1.0,5.0,56,0.00,FEW,,0.00,0.0,WeatherDisplay:10.37,2013-07-25 17:50:00,
2013-07-25 13:00:00,81.0,64.3,28.77,East,92,0.0,3.0,57,0.00,FEW,,0.00,0.0,WeatherDisplay:10.37,2013-07-25 18:00:00,
2013-07-25 13:10:00,81.0,65.4,28.77,North,5,0.0,3.0,59,0.00,FEW,,0.00,0.0,WeatherDisplay:10.37,2013-07-25 18:10:00,
2013-07-25 13:20:00,81.1,65.4,28.77,North,5,0.0,3.0,59,0.00,FEW,,0.00,0.0,WeatherDisplay:10.37,2013-07-25 18:20:00,
2013-07-25 13:30:00,82.2,64.9,28.76,NNE,18,0.0,5.0,56,0.00,FEW,,0.00,0.0,WeatherDisplay:10.37,2013-07-25 18:30:00,
2013-07-25 13:40:00,82.5,64.2,28.76,SE,145,0.0,6.0,54,0.00,FEW,,0.00,0.0,WeatherDisplay:10.37,2013-07-25 18:40:00,
2013-07-25 13:50:00,82.8,64.5,28.75,South,170,2.0,4.0,54,0.00,FEW,,0.00,0.0,WeatherDisplay:10.37,2013-07-25 18:50:00,
2013-07-25 14:00:00,82.4,65.7,28.75,South,173,1.0,5.0,57,0.00,FEW,,0.00,0.0,WeatherDisplay:10.37,2013-07-25 19:00:00,
2013-07-25 14:10:00,82.7,64.4,28.75,ESE,123,2.0,7.0,54,0.00,FEW,,0.00,0.0,WeatherDisplay:10.37,2013-07-25 19:10:00,
2013-07-25 14:20:00,82.6,64.8,28.75,SE,124,1.0,6.0,55,0.00,FEW,,0.00,0.0,WeatherDisplay:10.37,2013-07-25 19:20:00,
2013-07-25 14:30:00,83.1,65.8,28.75,SSE,158,0.0,5.0,56,0.00,FEW,,0.00,0.0,WeatherDisplay:10.37,2013-07-25 19:30:00,
2013-07-25 14:40:00,83.9,65.0,28.75,SSE,158,0.0,2.0,53,0.00,FEW,,0.00,0.0,WeatherDisplay:10.37,2013-07-25 19:40:00,
2013-07-25 14:50:00,84.1,65.1,28.75,South,176,1.0,6.0,53,0.00,FEW,,0.00,0.0,WeatherDisplay:10.37,2013-07-25 19:50:00,
2013-07-25 15:00:00,84.5,66.0,28.75,SE,141,1.0,7.0,54,0.00,FEW,,0.00,0.0,WeatherDisplay:10.37,2013-07-25 20:00:00,
2013-07-25 15:10:00,84.2,64.7,28.75,SSE,154,1.0,7.0,52,0.00,FEW,,0.00,0.0,WeatherDisplay:10.37,2013-07-25 20:10:00,
2013-07-25 15:20:00,84.8,65.2,28.75,SSE,155,0.0,3.0,52,0.00,FEW,,0.00,0.0,WeatherDisplay:10.37,2013-07-25 20:20:00,
2013-07-25 15:30:00,85.3,64.5,28.75,SE,144,1.0,6.0,50,0.00,FEW,,0.00,0.0,WeatherDisplay:10.37,2013-07-25 20:30:00,
2013-07-25 15:40:00,85.3,65.6,28.75,SSE,148,0.0,1.0,52,0.00,FEW,,0.00,0.0,WeatherDisplay:10.37,2013-07-25 20:40:00,
2013-07-25 15:50:00,86.1,66.4,28.74,SSE,148,0.0,2.0,52,0.00,FEW,,0.00,0.0,WeatherDisplay:10.37,2013-07-25 20:50:00,
2013-07-25 16:00:00,86.3,66.6,28.74,SSE,149,0.0,4.0,52,0.00,FEW,,0.00,0.0,WeatherDisplay:10.37,2013-07-25 21:00:00,
2013-07-25 16:10:00,86.6,66.3,28.74,NE,50,0.0,7.0,51,0.00,FEW,,0.00,0.0,WeatherDisplay:10.37,2013-07-25 21:10:00,
2013-07-25 16:20:00,86.3,65.5,28.74,NE,49,0.0,4.0,50,0.00,FEW,,0.00,0.0,WeatherDisplay:10.37,2013-07-25 21:20:00,
2013-07-25 16:30:00,86.1,65.3,28.74,NE,49,0.0,3.0,50,0.00,FEW,,0.00,0.0,WeatherDisplay:10.37,2013-07-25 21:30:00,
2013-07-25 16:40:00,86.7,65.3,28.74,NE,49,1.0,3.0,49,0.00,FEW,,0.00,0.0,WeatherDisplay:10.37,2013-07-25 21:40:00,
2013-07-25 16:50:00,85.7,64.9,28.74,NNW,333,1.0,4.0,50,0.00,FEW,,0.00,0.0,WeatherDisplay:10.37,2013-07-25 21:50:00,
2013-07-25 17:00:00,84.9,64.2,28.74,South,169,1.0,5.0,50,0.00,FEW,,0.00,0.0,WeatherDisplay:10.37,2013-07-25 22:00:00,
2013-07-25 17:10:00,84.9,65.3,28.73,SSE,167,0.0,1.0,52,0.00,FEW,,0.00,0.0,WeatherDisplay:10.37,2013-07-25 22:10:00,
2013-07-25 17:20:00,84.3,66.4,28.73,SSE,167,0.0,0.0,55,0.00,FEW,,0.00,0.0,WeatherDisplay:10.37,2013-07-25 22:20:00,
2013-07-25 17:30:00,84.0,67.6,28.73,SSE,167,0.0,1.0,58,0.00,FEW,,0.00,0.0,WeatherDisplay:10.37,2013-07-25 22:30:00,
2013-07-25 17:40:00,83.7,67.9,28.73,SSE,167,0.0,0.0,59,0.00,FEW,,0.00,0.0,WeatherDisplay:10.37,2013-07-25 22:40:00,
2013-07-25 17:50:00,83.6,68.3,28.73,SSE,167,0.0,0.0,60,0.00,FEW,,0.00,0.0,WeatherDisplay:10.37,2013-07-25 22:50:00,
2013-07-25 18:00:00,83.4,68.5,28.73,SSE,167,0.0,0.0,61,0.00,FEW,,0.00,0.0,WeatherDisplay:10.37,2013-07-25 23:00:00,
2013-07-25 18:10:00,84.4,67.5,28.72,SSE,167,0.0,1.0,57,0.00,FEW,,0.00,0.0,WeatherDisplay:10.37,2013-07-25 23:10:00,
2013-07-25 18:20:00,84.4,66.5,28.72,SE,129,2.0,6.0,55,0.00,FEW,,0.00,0.0,WeatherDisplay:10.37,2013-07-25 23:20:00,
2013-07-25 18:30:00,83.8,65.9,28.72,ESE,123,0.0,5.0,55,0.00,FEW,,0.00,0.0,WeatherDisplay:10.37,2013-07-25 23:30:00,
2013-07-25 18:40:00,84.1,66.7,28.72,ENE,60,0.0,4.0,56,0.00,FEW,,0.00,0.0,WeatherDisplay:10.37,2013-07-25 23:40:00,
2013-07-25 18:50:00,83.9,67.0,28.72,East,94,0.0,5.0,57,0.00,FEW,,0.00,0.0,WeatherDisplay:10.37,2013-07-25 23:50:00,
2013-07-25 19:00:00,83.8,67.0,28.72,East,83,1.0,3.0,57,0.00,FEW,,0.00,0.0,WeatherDisplay:10.37,2013-07-26 00:00:00,
2013-07-25 19:10:00,83.6,66.8,28.72,East,94,1.0,5.0,57,0.00,FEW,,0.00,0.0,WeatherDisplay:10.37,2013-07-26 00:10:00,
2013-07-25 19:20:00,82.6,66.3,28.73,SE,144,0.0,7.0,58,0.00,FEW,,0.00,0.0,WeatherDisplay:10.37,2013-07-26 00:20:00,
2013-07-25 19:30:00,81.9,66.2,28.72,SE,139,0.0,6.0,59,0.00,FEW,,0.00,0.0,WeatherDisplay:10.37,2013-07-26 00:30:00,
2013-07-25 19:40:00,81.6,66.8,28.73,SE,140,0.0,3.0,61,0.00,FEW,,0.00,0.0,WeatherDisplay:10.37,2013-07-26 00:40:00,
2013-07-25 19:50:00,80.9,66.6,28.73,SE,140,0.0,3.0,62,0.00,FEW,,0.00,0.0,WeatherDisplay:10.37,2013-07-26 00:50:00,
2013-07-25 20:00:00,80.1,66.8,28.72,SE,140,0.0,0.0,64,0.00,FEW,,0.00,0.0,WeatherDisplay:10.37,2013-07-26 01:00:00,
2013-07-25 20:10:00,79.4,67.1,28.72,SE,140,0.0,0.0,66,0.00,FEW,,0.00,0.0,WeatherDisplay:10.37,2013-07-26 01:10:00,
2013-07-25 20:20:00,78.4,66.5,28.72,SE,140,0.0,1.0,67,0.00,FEW,,0.00,0.0,WeatherDisplay:10.37,2013-07-26 01:20:00,
2013-07-25 20:30:00,77.3,66.3,28.72,SE,140,0.0,0.0,69,0.00,FEW,,0.00,0.0,WeatherDisplay:10.37,2013-07-26 01:30:00,
2013-07-25 20:40:00,76.7,67.4,28.71,SE,140,0.0,0.0,73,0.00,FEW,,0.00,0.0,WeatherDisplay:10.37,2013-07-26 01:40:00,
2013-07-25 20:50:00,76.1,66.0,28.72,SE,140,0.0,0.0,71,0.00,FEW,,0.00,0.0,WeatherDisplay:10.37,2013-07-26 01:50:00,
2013-07-25 21:00:00,75.9,65.8,28.72,SE,140,0.0,2.0,71,0.00,FEW,,0.00,0.0,WeatherDisplay:10.37,2013-07-26 02:00:00,
2013-07-25 21:10:00,76.1,66.0,28.72,SE,140,2.0,5.0,71,0.00,FEW,,0.00,0.0,WeatherDisplay:10.37,2013-07-26 02:10:00,
2013-07-25 21:20:00,76.2,65.7,28.72,SE,139,1.0,5.0,70,0.00,FEW,,0.00,0.0,WeatherDisplay:10.37,2013-07-26 02:20:00,
2013-07-25 21:30:00,76.0,65.5,28.72,SE,127,2.0,7.0,70,0.00,FEW,,0.00,0.0,WeatherDisplay:10.37,2013-07-26 02:30:00,
2013-07-25 21:40:00,75.7,65.2,28.72,SE,128,1.0,5.0,70,0.00,FEW,,0.00,0.0,WeatherDisplay:10.37,2013-07-26 02:40:00,
2013-07-25 21:50:00,75.2,65.2,28.73,SE,128,0.0,6.0,71,0.00,FEW,,0.00,0.0,WeatherDisplay:10.37,2013-07-26 02:50:00,
2013-07-25 22:00:00,74.9,64.8,28.73,SE,128,0.0,4.0,71,0.00,FEW,,0.00,0.0,WeatherDisplay:10.37,2013-07-26 03:00:00,
2013-07-25 22:10:00,74.5,64.9,28.73,SE,128,0.0,3.0,72,0.00,FEW,,0.00,0.0,WeatherDisplay:10.37,2013-07-26 03:10:00,
2013-07-25 22:20:00,74.4,64.8,28.73,SE,128,1.0,4.0,72,0.00,FEW,,0.00,0.0,WeatherDisplay:10.37,2013-07-26 03:20:00,
2013-07-25 22:30:00,74.4,64.7,28.73,SE,128,0.0,4.0,72,0.00,FEW,,0.00,0.0,WeatherDisplay:10.37,2013-07-26 03:30:00,
2013-07-25 22:40:00,74.3,64.3,28.73,SE,128,0.0,4.0,71,0.00,FEW,,0.00,0.0,WeatherDisplay:10.37,2013-07-26 03:40:00,
2013-07-25 22:50:00,74.3,64.3,28.73,SE,128,0.0,4.0,71,0.00,FEW,,0.00,0.0,WeatherDisplay:10.37,2013-07-26 03:50:00,
2013-07-25 23:00:00,74.2,64.6,28.73,SE,128,0.0,5.0,72,0.00,FEW,,0.00,0.0,WeatherDisplay:10.37,2013-07-26 04:00:00,
2013-07-25 23:10:00,74.0,64.0,28.74,SE,128,0.0,4.0,71,0.00,FEW,,0.00,0.0,WeatherDisplay:10.37,2013-07-26 04:10:00,
2013-07-25 23:20:00,73.9,64.3,28.74,SE,128,0.0,3.0,72,0.00,FEW,,0.00,0.0,WeatherDisplay:10.37,2013-07-26 04:20:00,
2013-07-25 23:30:00,73.6,64.4,28.73,SE,128,0.0,4.0,73,0.00,FEW,,0.00,0.0,WeatherDisplay:10.37,2013-07-26 04:30:00,
2013-07-25 23:40:00,73.1,63.9,28.73,SE,128,0.0,3.0,73,0.00,FEW,,0.00,0.0,WeatherDisplay:10.37,2013-07-26 04:40:00,
2013-07-25 23:50:00,72.8,64.0,28.73,SE,128,0.0,3.0,74,0.00,FEW,,0.00,0.0,WeatherDisplay:10.37,2013-07-26 04:50:00,